Frankfort, MI

4:58 AM EDT on July 23, 2017 (GMT -0400)
Frankfort

Weather History for KFKS - January, 2014

Change the Weather History Date:

Friday, January 24, 2014

  Actual Average (KMBL) Record (KMBL)
Temperature  
Mean Temperature 18 °F -  
Max Temperature 27 °F 31 °F 58 °F (1950)
Min Temperature 9 °F 17 °F -6 °F (1963)
Degree Days  
Heating Degree Days 47    
Moisture  
Dew Point 14 °F    
Average Humidity 83    
Maximum Humidity 92    
Minimum Humidity 73    
Precipitation  
Precipitation 0.00 in - - ()
Sea Level Pressure  
Sea Level Pressure 29.78 in    
Wind  
Wind Speed 15 mph (SW)    
Max Wind Speed 30 mph    
Max Gust Speed 44 mph    
Visibility 2 miles    
Events Snow    
Averages and records for this station are not official NWS values.
T = Trace of Precipitation, MM = Missing Value Source: NWS Daily Summary

Daily Weather History Graph

Daily Weather History Graph

Search for Another Location

Airport or City:

Trip Planner

Search our weather history database for the weather conditions in past years. The results will help you decide how hot, cold, wet, or windy it might be!

Date:

Astronomy

Jan. 24, 2014 Rise Set
Actual Time 8:11 AM EST 5:42 PM EST
Civil Twilight 7:40 AM EST 6:14 PM EST
Nautical Twilight 7:04 AM EST 6:49 PM EST
Astronomical Twilight 6:30 AM EST 7:24 PM EST
Moon 1:34 AM EST (1/24) 12:03 PM EST (1/24)
Length of Visible Light 10h 34m
Length of Day
9h 30m
Last Quarter, 45% of the Moon is Illuminated
Jan 24
Last Quarter
Jan 30
New
Feb 6
First Quarter
Feb 14
Full
Feb 22
Last Quarter

Hourly Weather History & Observations

Time (EST) Temp. Windchill Dew Point Humidity Pressure Visibility Wind Dir Wind Speed Gust Speed Precip Events Conditions
12:15 AM 11.8 °F -3.0 °F 4.6 °F 73% 30.33 in 7.0 mi WSW 12.7 mph 17.3 mph N/A Snow Light Snow
12:30 AM 11.5 °F -3.4 °F 4.8 °F 75% 30.31 in 5.0 mi WSW 12.7 mph 16.1 mph N/A Snow Light Snow
12:52 AM 10.8 °F -3.6 °F 3.6 °F 73% 30.29 in 5.0 mi SW 11.5 mph 19.6 mph N/A Snow Light Snow
1:12 AM 10.4 °F -4.8 °F 3.7 °F 74% 30.28 in 10.0 mi WSW 12.7 mph 18.4 mph N/A   Overcast
1:32 AM 10.4 °F -4.1 °F 4.1 °F 76% 30.28 in 7.0 mi SW 11.5 mph 19.6 mph N/A   Overcast
1:52 AM 10.4 °F -3.3 °F 4.6 °F 78% 30.27 in 5.0 mi WSW 10.4 mph 20.7 mph N/A Snow Light Snow
2:12 AM 10.0 °F -6.5 °F 5.4 °F 81% 30.26 in 3.0 mi WSW 15.0 mph 23.0 mph N/A Snow Light Snow
2:33 AM 9.7 °F -6.3 °F 4.1 °F 78% 30.25 in 5.0 mi WSW 13.8 mph 21.9 mph N/A Snow Light Snow
2:53 AM 9.5 °F -5.2 °F 4.1 °F 79% 30.24 in 5.0 mi WSW 11.5 mph 18.4 mph N/A Snow Light Snow
3:13 AM 9.9 °F -5.5 °F 4.3 °F 78% 30.23 in 5.0 mi WSW 12.7 mph 21.9 mph N/A Snow Light Snow
3:33 AM 10.2 °F -6.3 °F 5.5 °F 81% 30.22 in 5.0 mi WSW 15.0 mph 25.3 mph N/A Snow Light Snow
3:53 AM 10.6 °F -5.2 °F 6.1 °F 82% 30.21 in 2.0 mi WSW 13.8 mph 24.2 mph N/A Snow Light Snow
4:13 AM 10.9 °F -2.6 °F 5.9 °F 80% 30.20 in 3.0 mi SW 10.4 mph 26.5 mph N/A Snow Light Snow
4:33 AM 11.3 °F -5.5 °F 6.3 °F 80% 30.18 in 2.5 mi SW 16.1 mph 25.3 mph N/A Snow Light Snow
4:54 AM 11.3 °F -4.9 °F 5.9 °F 79% 30.17 in 3.0 mi SW 15.0 mph 26.5 mph N/A Snow Light Snow
5:14 AM 11.5 °F -5.2 °F 6.3 °F 80% 30.15 in 3.0 mi WSW 16.1 mph 29.9 mph N/A Snow Light Snow
5:34 AM 12.2 °F -4.8 °F 7.5 °F 82% 30.12 in 2.5 mi SW 17.3 mph 26.5 mph N/A Snow Light Snow
5:54 AM 12.7 °F -4.1 °F 7.5 °F 80% 30.11 in 2.5 mi SW 17.3 mph 26.5 mph N/A Snow Light Snow
6:14 AM 12.6 °F -4.4 °F 7.2 °F 79% 30.10 in 3.0 mi SW 17.3 mph 28.8 mph N/A Snow Light Snow
6:34 AM 12.7 °F -1.8 °F 7.5 °F 80% 30.07 in 2.5 mi SW 12.7 mph 27.6 mph N/A Snow Light Snow
6:54 AM 13.1 °F -0.7 °F 6.6 °F 75% 30.05 in 3.0 mi SSW 11.5 mph 28.8 mph N/A Snow Light Snow
7:14 AM 14.0 °F -3.4 °F 8.4 °F 78% 30.03 in 2.5 mi SSW 19.6 mph 29.9 mph N/A   Haze
7:34 AM 15.1 °F 0.5 °F 9.5 °F 79% 30.01 in 3.0 mi SSW 13.8 mph 29.9 mph N/A Snow Light Snow
7:55 AM 16.2 °F 0.3 °F 10.9 °F 80% 29.99 in 3.0 mi SW 17.3 mph 32.2 mph N/A Snow Light Snow
8:15 AM 17.6 °F 1.3 °F 11.3 °F 76% 29.97 in 3.0 mi SW 19.6 mph 29.9 mph N/A   Haze
8:35 AM 18.1 °F 1.6 °F 10.9 °F 73% 29.94 in 1.2 mi SSW 20.7 mph 39.1 mph N/A Snow Light Snow
8:55 AM 18.3 °F 1.8 °F 10.9 °F 73% 29.91 in 0.8 mi SSW 20.7 mph 40.3 mph N/A Snow Light Snow
9:15 AM 18.5 °F 2.4 °F 11.3 °F 73% 29.89 in 1.2 mi SSW 19.6 mph 38.0 mph N/A Snow Light Snow
9:35 AM 19.0 °F 3.2 °F 12.7 °F 76% 29.87 in 0.8 mi SSW 19.6 mph 36.8 mph N/A Snow Light Snow
9:55 AM 18.7 °F 3.6 °F 15.1 °F 86% 29.85 in 0.2 mi SW 17.3 mph 38.0 mph N/A Snow Light Snow
10:15 AM 19.0 °F 2.0 °F 14.9 °F 84% 29.81 in 0.5 mi SSW 23.0 mph 40.3 mph N/A Snow Light Snow
10:35 AM 19.4 °F 0.5 °F 14.2 °F 80% 29.79 in 0.5 mi SSW 29.9 mph 40.3 mph N/A Snow Light Snow
10:56 AM 19.9 °F 1.5 °F 14.7 °F 80% 29.78 in 0.5 mi SSW 28.8 mph 43.7 mph N/A Snow Snow
11:16 AM 20.7 °F 2.2 °F 16.5 °F 84% 29.77 in 0.2 mi SW 29.9 mph 40.3 mph N/A Snow Snow
11:36 AM 20.3 °F 4.0 °F 17.8 °F 90% 29.75 in 0.2 mi SW 21.9 mph 38.0 mph N/A Snow Heavy Snow
11:56 AM 20.3 °F 4.8 °F 17.8 °F 90% 29.74 in 0.2 mi WSW 19.6 mph 34.5 mph N/A Snow Heavy Snow
12:16 PM 19.6 °F 3.9 °F 15.4 °F 84% 29.72 in 0.5 mi WSW 19.6 mph 32.2 mph N/A Snow Light Snow
12:31 PM 19.4 °F 5.5 °F 15.3 °F 84% 29.71 in 0.8 mi SSW 15.0 mph 32.2 mph N/A Snow Light Snow
12:51 PM 19.2 °F 2.2 °F 14.2 °F 81% 29.69 in 0.8 mi SW 23.0 mph 36.8 mph N/A Snow Light Snow
1:12 PM 19.4 °F 3.6 °F 14.4 °F 81% 29.68 in 0.8 mi WSW 19.6 mph 28.8 mph N/A Snow Light Snow
1:32 PM 19.4 °F 3.6 °F 14.9 °F 83% 29.65 in 0.5 mi SW 19.6 mph 34.5 mph N/A Snow Light Snow
1:52 PM 19.4 °F 5.0 °F 15.1 °F 83% 29.63 in 0.5 mi SW 16.1 mph 33.4 mph N/A Snow Light Snow
2:12 PM 19.4 °F 3.6 °F 14.9 °F 83% 29.60 in 0.8 mi SW 19.6 mph 34.5 mph N/A Snow Light Snow
2:32 PM 19.8 °F 4.1 °F 15.6 °F 84% 29.59 in 0.8 mi SW 19.6 mph 33.4 mph N/A Snow Light Snow
2:53 PM 20.1 °F 5.0 °F 15.1 °F 81% 29.57 in 1.2 mi SW 18.4 mph 29.9 mph N/A Snow Light Snow
3:13 PM 20.1 °F 5.9 °F 15.3 °F 81% 29.56 in 1.0 mi WSW 16.1 mph 28.8 mph N/A Snow Light Snow
3:33 PM 20.3 °F 6.6 °F 15.6 °F 82% 29.56 in 1.2 mi SW 15.0 mph 31.1 mph N/A Snow Light Snow
3:53 PM 20.7 °F 6.1 °F 15.8 °F 81% 29.55 in 1.5 mi SW 17.3 mph 27.6 mph N/A Snow Light Snow
4:13 PM 20.8 °F 6.8 °F 16.0 °F 81% 29.54 in 1.0 mi SW 16.1 mph 28.8 mph N/A Snow Light Snow
4:33 PM 21.0 °F 7.6 °F 16.7 °F 83% 29.53 in 1.0 mi WSW 15.0 mph 25.3 mph N/A Snow Light Snow
4:54 PM 21.2 °F 7.3 °F 16.7 °F 83% 29.52 in 1.2 mi WSW 16.1 mph 26.5 mph N/A Snow Light Snow
5:14 PM 21.4 °F 7.1 °F 16.9 °F 83% 29.51 in 1.2 mi SW 17.3 mph 28.8 mph N/A Snow Light Snow
5:34 PM 21.9 °F 8.7 °F 17.2 °F 82% 29.51 in 1.8 mi WSW 15.0 mph 26.5 mph N/A Snow Light Snow
5:54 PM 22.1 °F 8.5 °F 18.0 °F 84% 29.49 in 1.8 mi SW 16.1 mph 29.9 mph N/A Snow Light Snow
6:14 PM 22.1 °F 8.5 °F 18.5 °F 86% 29.47 in 1.8 mi SW 16.1 mph 26.5 mph N/A Snow Light Snow
6:34 PM 22.1 °F 8.9 °F 19.4 °F 89% 29.47 in 1.0 mi WSW 15.0 mph 28.8 mph N/A Snow Snow
6:55 PM 22.6 °F 10.1 °F 20.1 °F 90% 29.45 in 0.8 mi WSW 13.8 mph 26.5 mph N/A Snow Snow
7:15 PM 22.8 °F 10.4 °F 20.3 °F 90% 29.45 in 0.8 mi SW 13.8 mph 26.5 mph N/A Snow Snow
7:35 PM 23.0 °F 9.2 °F 20.7 °F 91% 29.44 in 0.8 mi WSW 17.3 mph 27.6 mph N/A Snow Snow
7:55 PM 23.5 °F 10.8 °F 21.2 °F 91% 29.44 in 0.8 mi WSW 15.0 mph 25.3 mph N/A Snow Snow
8:15 PM 24.1 °F 10.6 °F 21.9 °F 91% 29.43 in 0.8 mi WSW 17.3 mph 25.3 mph N/A Snow Snow
8:35 PM 24.6 °F 12.2 °F 22.5 °F 91% 29.41 in 0.8 mi WSW 15.0 mph 24.2 mph N/A Snow Snow
8:55 PM 24.8 °F 11.1 °F 22.6 °F 91% 29.39 in 0.8 mi WSW 18.4 mph 29.9 mph N/A Snow Snow
9:16 PM 25.0 °F 11.7 °F 22.8 °F 91% 29.37 in 0.8 mi WSW 17.3 mph 25.3 mph N/A Snow Snow
9:36 PM 25.5 °F 13.8 °F 23.0 °F 90% 29.36 in 1.0 mi WSW 13.8 mph 25.3 mph N/A Snow Snow
9:56 PM 26.1 °F 13.1 °F 23.0 °F 88% 29.35 in 1.0 mi West 17.3 mph 29.9 mph N/A Snow Snow
10:16 PM 26.1 °F 15.0 °F 23.7 °F 91% 29.33 in 1.2 mi WSW 12.7 mph 26.5 mph N/A Snow Light Snow
10:36 PM 26.4 °F 14.5 °F 23.9 °F 90% 29.32 in 0.8 mi West 15.0 mph 25.3 mph N/A Snow Snow
10:56 PM 26.6 °F 15.2 °F 24.6 °F 92% 29.30 in 1.0 mi West 13.8 mph 24.2 mph N/A Snow Light Snow
11:16 PM 27.1 °F 16.4 °F 24.8 °F 91% 29.29 in 1.0 mi West 12.7 mph 24.2 mph N/A Snow Snow
11:31 PM 27.5 °F 16.8 °F 25.3 °F 92% 29.28 in 1.2 mi West 12.7 mph 24.2 mph N/A Snow Light Snow
11:51 PM 27.9 °F 18.4 °F 25.5 °F 91% 29.27 in 1.0 mi West 10.4 mph 23.0 mph N/A Snow Snow